Time,TemperatureF,DewpointF,PressureIn,WindDirection,WindDirectionDegrees,WindSpeedMPH,WindSpeedGustMPH,Humidity,HourlyPrecipIn,Conditions,Clouds,dailyrainin,SoftwareType,DateUTC
2013-01-19 11:23:00,37.0,25.0,29.99,SSE,153,8.0,11.0,61,-99.99,,,-99.99,,2013-01-19 16:23:00,
2013-01-19 11:33:00,37.0,25.0,29.99,SSE,153,8.0,11.0,61,-99.99,,,-99.99,,2013-01-19 16:33:00,
2013-01-19 11:43:00,37.0,25.0,29.99,SSE,153,8.0,11.0,61,-99.99,,,-99.99,,2013-01-19 16:43:00,
2013-01-19 11:53:00,37.0,25.0,29.99,SSE,153,8.0,11.0,61,-99.99,,,-99.99,,2013-01-19 16:53:00,
2013-01-19 12:38:00,41.0,28.0,29.93,SSE,163,7.0,9.0,59,-99.99,,,-99.99,,2013-01-19 17:38:00,
2013-01-19 12:50:00,41.0,28.0,29.93,SSE,163,7.0,9.0,59,-99.99,,,-99.99,,2013-01-19 17:50:00,
2013-01-19 12:55:00,41.0,28.0,29.93,SSE,163,7.0,9.0,59,-99.99,,,-99.99,,2013-01-19 17:55:00,
2013-01-19 13:15:00,43.0,29.0,29.92,SSE,159,6.0,9.0,57,-99.99,,,-99.99,,2013-01-19 18:15:00,
2013-01-19 13:38:00,43.0,29.0,29.92,SSE,159,6.0,9.0,57,-99.99,,,-99.99,,2013-01-19 18:38:00,
2013-01-19 13:48:00,43.0,29.0,29.92,SSE,159,6.0,9.0,57,-99.99,,,-99.99,,2013-01-19 18:48:00,
2013-01-19 14:04:00,43.0,29.0,29.92,SSE,159,6.0,9.0,57,-99.99,,,-99.99,,2013-01-19 19:04:00,
2013-01-19 14:10:00,43.0,29.0,29.92,SSE,159,6.0,9.0,57,-99.99,,,-99.99,,2013-01-19 19:10:00,
2013-01-19 15:12:00,45.0,30.0,29.92,SSE,153,5.0,7.0,55,-99.99,,,-99.99,,2013-01-19 20:12:00,
2013-01-19 15:20:00,45.0,30.0,29.92,SSE,153,5.0,7.0,55,-99.99,,,-99.99,,2013-01-19 20:20:00,
2013-01-19 15:27:00,44.0,29.0,29.91,South,171,1.0,6.0,56,-99.99,,,-99.99,,2013-01-19 20:27:00,
2013-01-19 15:39:00,44.0,29.0,29.91,South,171,1.0,6.0,56,-99.99,,,-99.99,,2013-01-19 20:39:00,
2013-01-19 15:54:00,44.0,29.0,29.91,South,171,1.0,6.0,56,-99.99,,,-99.99,,2013-01-19 20:54:00,
2013-01-19 15:55:00,42.0,29.0,29.90,SSW,195,3.0,3.0,60,-99.99,,,-99.99,,2013-01-19 20:55:00,
2013-01-19 16:29:00,42.0,29.0,29.90,SSW,195,3.0,3.0,60,-99.99,,,-99.99,,2013-01-19 21:29:00,
2013-01-19 16:46:00,42.0,29.0,29.90,SSW,195,3.0,3.0,60,-99.99,,,-99.99,,2013-01-19 21:46:00,
2013-01-19 16:52:00,42.0,29.0,29.90,SSW,195,3.0,3.0,60,-99.99,,,-99.99,,2013-01-19 21:52:00,
2013-01-19 17:28:00,41.0,29.0,29.88,SSE,155,3.0,7.0,61,-99.99,,,-99.99,,2013-01-19 22:28:00,
2013-01-19 17:35:00,41.0,29.0,29.88,SSE,155,3.0,7.0,61,-99.99,,,-99.99,,2013-01-19 22:35:00,
2013-01-19 17:48:00,41.0,29.0,29.88,SSE,155,3.0,7.0,61,-99.99,,,-99.99,,2013-01-19 22:48:00,
2013-01-19 17:55:00,41.0,29.0,29.88,SSE,155,3.0,7.0,61,-99.99,,,-99.99,,2013-01-19 22:55:00,
2013-01-19 19:10:00,40.0,30.0,29.87,SE,144,3.0,3.0,66,-99.99,,,-99.99,,2013-01-20 00:10:00,
2013-01-19 19:17:00,40.0,30.0,29.87,SE,144,3.0,3.0,66,-99.99,,,-99.99,,2013-01-20 00:17:00,
2013-01-19 19:26:00,40.0,30.0,29.87,SE,144,3.0,3.0,66,-99.99,,,-99.99,,2013-01-20 00:26:00,
2013-01-19 20:39:00,38.0,28.0,29.84,SSW,193,2.0,7.0,67,-99.99,,,-99.99,,2013-01-20 01:39:00,
2013-01-19 20:52:00,38.0,28.0,29.84,SSW,193,2.0,7.0,67,-99.99,,,-99.99,,2013-01-20 01:52:00,
2013-01-19 21:05:00,38.0,28.0,29.84,SSW,193,2.0,7.0,67,-99.99,,,-99.99,,2013-01-20 02:05:00,
2013-01-19 21:15:00,38.0,28.0,29.84,SSW,193,2.0,7.0,67,-99.99,,,-99.99,,2013-01-20 02:15:00,